カタログに戻る

HULIANWANG DIGUI-98

運用中通信LEO
NORAD 66414·PAYLOAD·🇨🇳 China

打ち上げ Nov 10, 2025 から Wenchang Space Launch Site

Loading…

次のパス (今後24時間)

TLE

最新Source: Space-Track

元期: Sep 14, 2026, 11:14 UTC

1 66414U 25258C   26257.46874477 -.00000089  00000-0  75736-4 0  9992
2 66414  50.0067 335.6616 0000262  72.4157 287.6744 13.29326637 41608

AllMySatでHULIANWANG DIGUI-98をリアルタイム追跡

Download on the App Store